COSMOS 1275 DEB, 13619

Orbit data source: Space-Track

COSMOS 1275 DEB, 13619 is space debris in LEO originally from a launch on Thu, 04 Jun 1981 UTC launched from the Plesetsk Missile And Space Complex (PKMTR). Debris objects in space refer to the collection of defunct objects orbiting the Earth. Examples of debris include non-operational satellites, rocket bodies, and fragments generated from explosions, collisions, or faulty payload assembly.

Loading next visibility...
Identifier
13619, 1981-053GM
Orbit
LEO
Country
Flag of CISCIS
Related business
Manufacturer
Unknown
Mission
Spacecraft
Bus & Motor
Unknown
Mass
Unknown
Launch date (UTC)
1981-06-04 (45 years ago)
Launch vehicle
Unknown
Launch site
Plesetsk Missile And Space Complex (PKMTR)
Object type
Payload
Rocket body
Debris
Shape & HBR
Unknown shape, 0.1 m
Radar Cross Section
Medium (>0.1 m² and <1 m²)

Expand to show TLE details & history
Last TLE update: 1 day ago

TLE from 1 day ago
0 COSMOS 1275 DEB
1 13619U 81053GM  26234.98099547  .00001555  00000-0  86207-3 0  9997
2 13619  83.0266  54.2886 0023129 150.4438 333.5977 14.10519947232568
Epoch: 2026-08-22T23:32Z
TLE epoch observation values (Epoch: 2026-08-22T23:32:38.008Z)
Latitude
55.55046°
Longitude
-100.36951°
Altitude
851.85 km
Speed
7.44 km/s
True Right ascension
14h 56m 17s
True Declination
55° 23' 31"
Sunlit
Object was in daylight at epoch
Visualization orbit readout
Latitude
Unknown
Longitude
Unknown
Altitude
Unknown
Speed
Unknown
Apparent Right ascension
Unknown
Apparent Declination
Unknown
Sunlit
N/A
Visualization observer readout
Local Sidereal Time
23:45:37
Azimuth
Unknown
Elevation
Unknown
Doppler factor
Unknown
Orbital elements
Apogee altitude
871.418 km
Perigee altitude
837.961 km
Semi-major axis
7,232.827 km
Eccentricity
0.00231
Inclination
83.0266°
RAAN
54.2886°
Arg. of periapsis
150.4438°
True anomaly
333.47954°
Mean anomaly
333.5977°
Eccentric anomaly
333.53865°
Mean motion
3.52843 °/min
Orbital period
102.03 mins
BSTAR
0.00086207
Loading maneuver chart data...
Computing Atmospheric mass density...

Documentation

Showing up to 5 results
|